Regional Weather Roundup
Issued by NWS

Home | Current Version | Previous Version | Graphics & Text | Print | Product List | Glossary On
Versions: 1 2 3 4 5 6 7 8 9 10 11 12 13 14 15 16 17 18 19 20 21 22 23 24 25 26 27 28 29 30 31 32 33 34 35 36 37 38 39 40 41 42 43 44 45 46 47 48 49 50
000
ASUS43 KFSD 261602
RWRSD

WEATHER ROUNDUP FOR SOUTH DAKOTA
NATIONAL WEATHER SERVICE SIOUX FALLS SD
1100 AM CDT SAT JUL 26 2014

NOTE: "FAIR" INDICATES FEW OR NO CLOUDS BELOW 12,000 FEET WITH NO
SIGNIFICANT WEATHER AND/OR OBSTRUCTIONS TO VISIBILITY.


SDZ001>005-009-010-012>017-261700-
NORTHWEST AND NORTH CENTRAL SOUTH DAKOTA

CITY           SKY/WX    TMP DP  RH WIND       PRES   REMARKS
BUFFALO          N/A     71  45  39 W22G30    30.00R
FAITH            N/A     75  48  38 NW22G30   30.00R
MOBRIDGE       SUNNY     74  53  48 NW15      29.91R
$$

SDZ012>016-024>037-041>051-057-063-072>074-261700-
SOUTHWEST AND SOUTH CENTRAL SOUTH DAKOTA

CITY           SKY/WX    TMP DP  RH WIND       PRES   REMARKS
RAPID CTY ARPT SUNNY     74  47  38 NW18      30.07R
PIERRE         MOSUNNY   79  64  60 N16G22    29.92R
CUSTER         SUNNY     72  35  25 N6        30.18R
ELLSWORTH AFB  SUNNY     73  44  34 N16       30.07S
PHILIP         SUNNY     80  46  30 N21       29.98R
PINE RIDGE     SUNNY     75  58  55 N10       30.06R
WINNER         LGT RAIN  66  62  87 E10       29.94R
$$

SDZ004>011-016>023-039-040-261700-
NORTHEAST SOUTH DAKOTA

CITY           SKY/WX    TMP DP  RH WIND       PRES   REMARKS
ABERDEEN       MOSUNNY   80  65  59 W14G20    29.87R
WATERTOWN      PTSUNNY   72  67  84 W8        29.89R
SISSETON         N/A     80  67  64 W16G22    29.83F
$$

SDZ017-020-022-023-036>040-048>070-261700-
SOUTHEAST SOUTH DAKOTA

CITY           SKY/WX    TMP DP  RH WIND       PRES   REMARKS
SIOUX FALLS    TSTM      71  70  96 N7        29.93R FOG
HURON          CLOUDY    73  68  84 NW9       29.91R
CHAMBERLAIN    CLOUDY    66  60  80 E7        29.92R
MITCHELL       CLOUDY    68  65  90 SW6       29.91F
YANKTON        PTSUNNY   77  72  83 E9        29.85R THUNDER
$$

ABBREVIATIONS USED IN REMARKS
   TC - TEMPERATURE IN CELSIUS
  WCI - WIND CHILL INDEX
   HX - HEAT INDEX
  VSB - VISIBILITY



USA.gov is the U.S. government's official web portal to all federal, state and local government web resources and services.